TimeEDT,TemperatureF,Dew PointF,Humidity,Sea Level PressureIn,VisibilityMPH,Wind Direction,Wind SpeedMPH,Gust SpeedMPH,PrecipitationIn,Events,Conditions,WindDirDegrees,DateUTC
12:15 AM,68.0,66.2,94,29.95,5.0,Calm,Calm,-,N/A,,Scattered Clouds,0,2013-08-07 04:15:00
12:35 AM,66.2,66.2,100,29.95,5.0,SSE,3.5,-,N/A,,Mostly Cloudy,160,2013-08-07 04:35:00
12:55 AM,68.0,68.0,100,29.95,3.0,Calm,Calm,-,N/A,,Overcast,0,2013-08-07 04:55:00
1:15 AM,68.0,68.0,100,29.95,3.0,Calm,Calm,-,N/A,,Overcast,0,2013-08-07 05:15:00
1:35 AM,68.0,68.0,100,29.95,4.0,Calm,Calm,-,N/A,,Overcast,0,2013-08-07 05:35:00
1:55 AM,66.2,66.2,100,29.95,5.0,SSE,3.5,-,N/A,,Mostly Cloudy,160,2013-08-07 05:55:00
2:15 AM,66.2,66.2,100,29.94,3.0,South,4.6,-,N/A,,Mostly Cloudy,170,2013-08-07 06:15:00
2:35 AM,68.0,68.0,100,29.94,3.0,Calm,Calm,-,N/A,,Scattered Clouds,0,2013-08-07 06:35:00
2:55 AM,68.0,66.2,94,29.94,3.0,South,3.5,-,N/A,,Mostly Cloudy,170,2013-08-07 06:55:00
3:15 AM,68.0,68.0,100,29.94,3.0,Calm,Calm,-,N/A,,Overcast,0,2013-08-07 07:15:00
3:35 AM,68.0,68.0,100,29.94,2.5,South,4.6,-,N/A,,Overcast,170,2013-08-07 07:35:00
3:55 AM,68.0,68.0,100,29.93,3.0,South,3.5,-,N/A,,Scattered Clouds,180,2013-08-07 07:55:00
4:15 AM,68.0,68.0,100,29.93,2.5,South,3.5,-,N/A,,Clear,190,2013-08-07 08:15:00
4:35 AM,68.0,68.0,100,29.93,2.0,Calm,Calm,-,N/A,,Scattered Clouds,0,2013-08-07 08:35:00
4:55 AM,68.0,68.0,100,29.92,2.0,Calm,Calm,-,N/A,,Scattered Clouds,0,2013-08-07 08:55:00
5:15 AM,68.0,68.0,100,29.91,2.5,Calm,Calm,-,N/A,,Clear,0,2013-08-07 09:15:00
5:35 AM,68.0,68.0,100,29.91,1.8,Calm,Calm,-,N/A,,Mist,0,2013-08-07 09:35:00
5:55 AM,68.0,68.0,100,29.92,1.5,Calm,Calm,-,N/A,,Mostly Cloudy,0,2013-08-07 09:55:00
6:15 AM,68.0,68.0,100,29.92,1.5,SSW,3.5,-,N/A,,Overcast,200,2013-08-07 10:15:00
6:35 AM,68.0,68.0,100,29.92,1.5,SSW,3.5,-,N/A,,Overcast,200,2013-08-07 10:35:00
6:55 AM,69.8,69.8,100,29.92,0.5,SSW,3.5,-,N/A,Fog,Fog,200,2013-08-07 10:55:00
7:15 AM,69.8,69.8,100,29.93,0.8,SW,3.5,-,N/A,,Overcast,230,2013-08-07 11:15:00
7:35 AM,69.8,69.8,100,29.92,1.2,Calm,Calm,-,N/A,,Overcast,0,2013-08-07 11:35:00
7:55 AM,69.8,69.8,100,29.92,1.0,SSW,3.5,-,N/A,,Overcast,210,2013-08-07 11:55:00
8:15 AM,69.8,69.8,100,29.92,1.0,SSW,4.6,-,N/A,,Overcast,210,2013-08-07 12:15:00
8:35 AM,71.6,71.6,100,29.94,2.5,WSW,4.6,-,N/A,,Overcast,240,2013-08-07 12:35:00
8:55 AM,71.6,71.6,100,29.95,3.0,SW,3.5,-,N/A,,Mostly Cloudy,220,2013-08-07 12:55:00
9:15 AM,73.4,71.6,94,29.95,4.0,SSW,5.8,-,N/A,,Mostly Cloudy,210,2013-08-07 13:15:00
9:35 AM,73.4,71.6,94,29.95,4.0,SSW,5.8,-,N/A,,Overcast,200,2013-08-07 13:35:00
9:55 AM,75.2,71.6,89,29.95,4.0,South,5.8,-,N/A,,Mostly Cloudy,190,2013-08-07 13:55:00
10:15 AM,77.0,71.6,83,29.95,3.0,SSW,6.9,-,N/A,,Haze,200,2013-08-07 14:15:00
10:35 AM,77.0,71.6,83,29.96,5.0,SSW,6.9,-,N/A,,Haze,200,2013-08-07 14:35:00
10:55 AM,77.0,71.6,83,29.95,7.0,SW,10.4,-,N/A,,Scattered Clouds,220,2013-08-07 14:55:00
11:15 AM,77.0,71.6,83,29.95,10.0,SW,10.4,-,N/A,,Scattered Clouds,230,2013-08-07 15:15:00
11:35 AM,77.0,71.6,83,29.95,4.0,SW,5.8,-,N/A,,Haze,230,2013-08-07 15:35:00
11:55 AM,78.8,71.6,78,29.95,4.0,SSW,5.8,-,N/A,,Haze,200,2013-08-07 15:55:00
12:15 PM,78.8,69.8,74,29.95,3.0,South,6.9,-,N/A,,Haze,190,2013-08-07 16:15:00
12:35 PM,77.0,69.8,78,29.95,3.0,SSW,6.9,-,N/A,,Haze,200,2013-08-07 16:35:00
12:55 PM,78.8,71.6,78,29.95,7.0,SW,9.2,-,N/A,,Overcast,220,2013-08-07 16:55:00
1:15 PM,78.8,69.8,74,29.95,7.0,SSW,8.1,-,N/A,,Overcast,210,2013-08-07 17:15:00
1:35 PM,78.8,69.8,74,29.94,5.0,SW,5.8,-,N/A,,Haze,230,2013-08-07 17:35:00
1:55 PM,78.8,69.8,74,29.94,5.0,SSW,8.1,-,N/A,,Haze,210,2013-08-07 17:55:00
2:15 PM,78.8,71.6,78,29.94,5.0,SW,6.9,-,N/A,,Haze,220,2013-08-07 18:15:00
2:35 PM,78.8,71.6,78,29.93,7.0,SW,5.8,-,N/A,,Mostly Cloudy,230,2013-08-07 18:35:00
2:55 PM,78.8,71.6,78,29.92,10.0,SW,4.6,-,N/A,,Mostly Cloudy,220,2013-08-07 18:55:00
3:15 PM,78.8,71.6,78,29.92,7.0,SW,9.2,-,N/A,,Mostly Cloudy,230,2013-08-07 19:15:00
3:35 PM,78.8,71.6,78,29.92,5.0,SSW,6.9,-,N/A,,Haze,200,2013-08-07 19:35:00
3:55 PM,80.6,71.6,74,29.91,5.0,South,6.9,-,N/A,,Haze,180,2013-08-07 19:55:00
4:15 PM,80.6,71.6,74,29.90,5.0,SSW,3.5,-,N/A,,Haze,200,2013-08-07 20:15:00
4:35 PM,82.4,69.8,66,29.90,7.0,SW,4.6,-,N/A,,Mostly Cloudy,220,2013-08-07 20:35:00
4:55 PM,80.6,69.8,70,29.90,10.0,SW,9.2,-,N/A,,Mostly Cloudy,220,2013-08-07 20:55:00
5:15 PM,80.6,71.6,74,29.90,10.0,WSW,4.6,-,N/A,,Scattered Clouds,240,2013-08-07 21:15:00
5:35 PM,82.4,71.6,70,29.90,10.0,SW,6.9,-,N/A,,Scattered Clouds,220,2013-08-07 21:35:00
5:55 PM,80.6,69.8,70,29.90,10.0,WSW,6.9,-,N/A,,Scattered Clouds,250,2013-08-07 21:55:00
6:15 PM,80.6,71.6,74,29.89,10.0,SW,5.8,-,N/A,,Scattered Clouds,230,2013-08-07 22:15:00
6:35 PM,80.6,69.8,70,29.89,10.0,WSW,6.9,-,N/A,,Clear,240,2013-08-07 22:35:00
6:55 PM,78.8,69.8,74,29.89,10.0,SW,5.8,-,N/A,,Clear,230,2013-08-07 22:55:00
7:15 PM,78.8,71.6,78,29.90,10.0,West,3.5,-,N/A,,Scattered Clouds,270,2013-08-07 23:15:00
7:35 PM,78.8,71.6,78,29.91,10.0,Calm,Calm,-,N/A,,Mostly Cloudy,0,2013-08-07 23:35:00
7:55 PM,77.0,71.6,83,29.91,10.0,Calm,Calm,-,N/A,,Scattered Clouds,0,2013-08-07 23:55:00
8:15 PM,77.0,71.6,83,29.91,10.0,Calm,Calm,-,N/A,,Scattered Clouds,0,2013-08-08 00:15:00
8:35 PM,77.0,71.6,83,29.90,10.0,Calm,Calm,-,N/A,,Clear,0,2013-08-08 00:35:00
8:55 PM,73.4,71.6,94,29.90,10.0,Calm,Calm,-,N/A,,Clear,0,2013-08-08 00:55:00
9:15 PM,73.4,71.6,94,29.90,10.0,Calm,Calm,-,N/A,,Clear,0,2013-08-08 01:15:00
9:35 PM,73.4,71.6,94,29.91,10.0,Calm,Calm,-,N/A,,Clear,0,2013-08-08 01:35:00
9:55 PM,71.6,71.6,100,29.92,7.0,Calm,Calm,-,N/A,,Clear,0,2013-08-08 01:55:00
10:15 PM,71.6,71.6,100,29.93,7.0,Calm,Calm,-,N/A,,Clear,0,2013-08-08 02:15:00
10:35 PM,69.8,69.8,100,29.94,5.0,Calm,Calm,-,N/A,,Clear,0,2013-08-08 02:35:00
10:55 PM,69.8,69.8,100,29.94,7.0,Calm,Calm,-,N/A,,Clear,0,2013-08-08 02:55:00
11:15 PM,69.8,69.8,100,29.93,5.0,Calm,Calm,-,N/A,,Clear,0,2013-08-08 03:15:00
11:35 PM,69.8,69.8,100,29.94,5.0,Calm,Calm,-,N/A,,Mostly Cloudy,0,2013-08-08 03:35:00
11:55 PM,71.6,71.6,100,29.94,7.0,Calm,Calm,-,N/A,,Overcast,0,2013-08-08 03:55:00